RH
26 24 19 21 24 34 49 26 73 21 35 26 32 34 33 42 55 63 76 89 100 94 93 92 94 98 98 95 97 95 82 67 59 53 41 30 17 12 8 7 33 63 44 47
32 20 22 22 20 23 27 31 40 28 34 42 25 30 30 52 63 68 86 100 91 92 91 85 86 88 88 95 96 96 84 70 64 52 42 30 18 12 8 7 50 96 99 90
29 28 23 31 23 18 19 20 19 27 30 31 26 23 29 53 60 90 97 98 95 96 91 78 77 91 89 100 100 97 83 74 61 48 39 29 18 12 8 7 52 100 95 96
34 31 41 26 19 19 11 8 10 21 28 26 30 23 32 64 76 92 97 96 96 96 91 82 84 99 96 99 97 100 86 71 56 46 35 26 15 10 8 8 75 100 59 38
44 43 36 26 20 14 8 7 10 15 15 14 14 20 26 61 66 92 97 98 99 99 94 94 92 83 88 78 95 90 73 62 49 44 31 20 13 9 9 26 98 100 88 55
45 52 48 27 19 15 9 6 6 7 10 13 7 14 22 38 50 82 97 98 97 96 96 96 91 91 97 58 66 76 65 58 49 44 32 16 12 10 12 93 100 100 90 57
52 51 44 28 27 15 8 8 5 5 8 13 15 25 36 36 45 73 97 97 97 97 95 93 95 90 79 52 60 74 65 58 50 41 34 16 12 11 27 90 100 100 100 100
48 48 40 45 36 15 8 3 3 4 5 8 10 10 27 35 43 57 94 93 95 96 96 67 89 98 95 89 62 70 58 58 46 38 29 20 14 13 55 98 100 100 99 99
61 56 53 48 37 10 4 2 3 3 4 5 6 7 14 25 32 51 88 96 97 96 96 93 51 96 98 88 50 54 60 55 37 30 24 19 15 14 82 99 100 100 98 98
65 55 57 42 14 5 2 2 3 4 4 5 4 6 8 18 21 34 55 95 96 97 96 96 83 38 81 98 37 46 48 41 30 26 19 16 15 23 88 98 100 100 100 98
60 58 43 25 9 4 2 3 4 5 5 4 4 4 5 8 16 22 41 69 96 96 97 97 96 95 53 25 28 32 37 32 28 24 16 14 15 31 73 98 99 99 100 89
62 59 36 21 9 4 2 3 5 6 6 4 3 3 4 3 10 15 28 43 83 96 97 99 98 98 100 85 28 24 28 22 15 12 11 11 11 10 66 66 99 100 100 92
60 47 34 19 9 4 2 4 6 6 6 4 3 2 3 3 2 10 13 22 51 96 97 98 99 99 100 100 72 18 12 10 10 9 9 9 9 17 74 100 99 98 100 100
56 51 35 16 8 4 2 4 6 6 6 4 2 2 2 3 2 3 7 8 28 67 97 97 97 92 76 74 18 8 7 6 6 7 12 76 100 77 73 97 98 98 100 100
62 53 37 18 7 3 3 4 6 7 6 4 2 2 2 2 2 2 4 8 9 41 92 97 97 97 97 93 80 86 58 43 75 90 98 98 100 99 99 99 100 100 100 100
62 54 36 13 8 3 3 5 7 7 6 4 2 2 1 2 2 2 2 4 3 14 48 81 98 98 98 98 98 98 98 98 99 99 99 99 99 100 99 100 100 100 100 97
50 46 32 12 9 3 3 6 6 6 6 4 2 2 1 2 2 2 2 1 5 3 20 43 73 96 98 99 98 99 98 98 98 98 99 100 99 99 100 99 99 98 100 100
45 40 23 12 6 3 4 6 7 7 6 4 2 2 1 1 2 2 2 2 2 6 7 22 43 78 96 100 100 98 98 99 99 99 99 98 99 99 99 99 100 100 99 100
43 34 13 13 4 3 6 7 8 8 7 4 2 2 2 2 2 2 3 3 2 1 3 7 31 52 82 96 100 100 96 97 96 99 97 98 96 99 99 99 100 100 100 100
42 18 16 9 3 5 7 8 8 8 6 3 2 2 2 2 2 3 4 5 9 4 4 8 11 35 55 88 95 99 100 100 100 99 99 100 100 99 100 99 99 99 99 100
30 17 20 7 4 6 8 8 9 8 6 3 2 2 3 3 4 4 5 7 12 11 6 17 15 21 40 66 89 95 98 100 100 100 99 98 97 98 100 99 100 100 100 99
20 23 18 4 4 7 8 9 10 9 6 3 3 3 3 5 6 7 10 22 23 26 24 22 35 34 40 48 82 89 90 97 100 100 100 98 98 99 99 98 98 100 99 98
21 30 8 4 6 9 10 11 11 9 4 3 3 3 4 5 9 12 15 25 34 37 38 38 44 50 54 58 66 91 91 93 96 100 100 100 100 100 91 98 99 99 99 100
33 15 4 6 9 10 12 13 12 8 4 4 4 5 6 10 15 26 37 48 49 47 46 46 48 53 58 68 70 94 95 95 95 95 99 100 100 98 99 98 96 99 99 99
30 7 4 8 10 12 14 14 13 8 5 5 6 6 7 14 23 36 43 48 50 48 50 53 55 57 64 69 73 92 96 96 96 96 95 96 98 99 99 99 100 96 99 98
10 4 6 9 11 13 15 15 13 8 6 6 8 9 12 23 37 47 49 49 50 50 52 55 58 60 64 73 79 90 95 95 96 96 95 96 96 97 98 100 99 99 98 98
8 4 8 11 13 16 17 16 14 11 8 8 11 16 24 35 43 46 48 48 51 52 55 58 61 65 69 77 82 88 95 95 96 96 96 95 96 97 97 97 97 98 98 98
Wind_Speed
34 38 23 26 22 21 30 30 31 43 47 44 52 57 58 58 57 58 58 59 60 58 55 47 40 33 28 30 29 24 23 28 40 47 56 65 67 66 66 63 68 67 65 62
48 14 29 33 14 17 23 28 39 41 44 38 54 56 57 55 58 59 61 63 59 55 51 41 34 31 28 26 26 25 24 30 42 50 57 65 67 69 69 65 72 72 67 61
14 33 33 12 20 21 27 32 35 37 37 52 56 56 54 55 56 63 63 60 57 52 46 34 31 29 28 28 25 25 25 29 43 51 57 63 66 71 70 66 74 77 76 70
24 22 5 30 24 24 40 42 30 27 50 54 55 55 50 52 58 60 60 59 53 46 38 27 23 24 26 23 20 17 19 30 46 50 57 62 65 71 69 65 75 74 68 62
10 19 32 18 20 34 42 43 27 49 56 57 55 56 52 52 52 57 59 55 47 37 31 19 19 22 22 14 9 8 13 29 44 46 56 62 65 72 66 67 71 69 65 60
13 6 6 21 29 38 39 17 49 54 55 53 55 60 59 56 56 58 56 54 46 33 26 20 19 17 20 12 6 7 13 24 37 44 55 61 64 70 64 74 70 65 61 61
19 14 21 19 33 36 22 32 47 49 50 49 49 47 52 53 55 54 56 56 46 28 18 18 16 13 13 9 3 9 16 22 35 43 54 60 65 66 61 80 72 62 60 61
8 9 12 38 38 31 38 39 43 45 48 50 50 49 49 51 55 56 58 57 53 36 17 13 9 12 10 11 2 6 13 22 33 42 49 57 61 60 69 69 69 61 58 55
19 28 38 34 32 31 35 37 41 43 47 51 52 50 49 52 55 55 57 58 55 47 31 18 19 16 16 12 10 6 13 21 26 34 44 49 54 56 58 67 69 59 54 52
45 38 41 31 27 30 32 33 36 41 45 49 51 49 48 51 53 55 56 58 57 52 43 28 24 22 12 14 15 9 15 20 26 32 33 37 47 52 65 66 62 57 55 52
48 41 31 25 24 27 28 32 34 37 42 48 50 48 46 50 52 52 55 54 54 54 47 37 24 30 27 20 15 13 16 20 24 24 26 31 38 46 52 63 61 57 57 50
41 37 30 25 25 27 28 30 35 40 41 45 49 49 46 46 49 50 52 52 51 51 49 39 35 20 19 19 14 13 12 18 23 25 28 35 42 45 49 61 63 58 49 45
38 30 28 24 24 25 26 28 32 37 43 46 46 46 43 43 44 45 44 47 48 45 46 41 26 25 20 14 11 10 17 19 18 23 30 33 34 39 47 37 54 49 41 31
33 29 25 22 23 24 24 26 30 35 40 44 44 43 41 40 37 42 44 42 42 41 38 38 39 16 15 11 10 16 23 29 32 30 34 43 38 43 55 49 47 40 32 30
36 29 24 21 22 22 22 23 28 33 37 40 42 41 40 40 40 38 42 39 35 33 32 35 35 35 22 16 24 20 22 31 32 29 26 29 44 41 43 43 39 34 32 32
34 28 23 20 21 21 22 24 27 31 36 40 42 41 39 38 38 36 36 39 34 29 27 25 29 27 27 23 20 13 8 10 13 22 39 39 39 44 42 38 36 33 28 21
29 25 21 19 20 20 21 23 27 30 34 39 42 41 40 37 36 35 30 32 35 31 30 25 22 21 17 18 17 15 13 14 14 13 20 19 21 31 33 29 32 27 22 15
25 23 20 18 19 18 19 22 26 29 33 37 39 39 38 37 37 38 37 30 29 25 25 24 19 17 13 9 13 13 9 12 19 19 21 24 24 31 21 26 26 22 21 19
22 21 18 17 17 16 18 21 24 28 32 36 37 36 36 36 36 35 36 34 28 26 19 17 17 14 13 8 2 6 8 7 7 16 24 25 32 21 21 21 24 23 26 23
21 19 16 16 15 15 16 19 23 27 31 33 34 33 32 32 33 30 31 34 33 28 30 23 18 16 12 9 8 4 12 9 9 9 12 26 22 19 18 20 20 26 24 21
19 17 16 14 14 13 15 18 22 26 29 31 31 31 31 30 32 32 27 27 27 25 23 28 21 17 16 11 10 11 10 11 11 10 11 14 23 29 24 28 26 24 23 20
18 16 15 13 12 12 14 17 20 25 28 30 30 30 30 28 25 27 30 28 26 25 22 23 24 20 15 15 12 12 13 17 17 15 15 15 15 14 19 20 30 28 25 26
17 15 14 12 12 11 13 16 21 25 27 27 27 27 28 28 26 22 20 22 24 25 24 22 23 21 19 15 12 11 11 13 17 24 19 21 20 21 19 17 17 23 28 28
16 15 13 13 10 10 12 16 20 24 25 24 24 24 24 22 23 22 23 23 24 25 25 24 23 22 18 16 13 11 9 11 13 18 26 24 25 23 20 19 17 17 23 28
15 15 15 12 9 8 11 15 19 23 24 23 22 23 23 20 19 18 19 21 23 24 24 24 23 22 20 17 15 11 9 8 11 13 17 21 23 26 26 24 23 21 20 20
17 17 15 11 8 8 10 14 17 20 21 20 19 20 19 18 17 19 20 21 22 24 24 23 23 21 19 17 15 13 9 6 7 10 12 16 20 25 26 28 27 27 25 25
18 18 15 11 8 7 9 12 16 18 18 18 17 17 16 15 16 18 19 21 22 23 23 22 22 21 18 16 15 13 10 7 5 7 9 11 16 20 25 27 28 28 29 28
Wind_Direction
315 317 299 307 303 280 267 289 263 298 301 328 330 334 338 338 333 335 340 338 336 328 322 322 317 308 303 298 295 285 263 229 219 208 204 199 195 192 185 185 183 181 187 194
322 326 321 316 302 281 284 287 287 303 303 324 336 335 340 340 336 340 340 341 334 329 328 324 317 309 305 299 293 284 257 225 213 205 201 197 193 190 184 184 182 179 183 189
304 327 316 311 338 323 320 320 318 302 327 336 336 339 345 339 343 342 342 341 339 334 331 323 310 310 308 304 294 281 250 222 207 201 197 194 191 188 183 184 183 181 186 190
299 335 328 324 325 328 333 336 328 328 334 334 335 334 346 348 346 341 346 346 343 335 330 325 311 314 314 306 298 283 242 208 198 198 193 191 188 187 183 184 183 184 188 187
295 307 302 315 343 338 335 343 342 336 333 333 336 335 355 348 347 346 353 352 350 339 332 335 325 327 325 306 294 285 214 192 192 194 190 190 186 187 183 180 176 180 183 186
289 280 269 316 326 336 337 339 338 332 328 330 342 344 349 347 352 353 358 1 358 345 337 323 320 320 326 307 239 247 200 192 194 196 188 188 185 189 182 178 174 182 178 186
274 261 302 315 333 333 344 329 328 326 326 330 341 343 342 345 352 356 2 7 8 0 350 340 335 343 359 354 244 201 187 197 198 195 185 186 186 189 185 184 179 176 180 185
284 265 307 324 322 324 322 326 327 330 330 333 341 352 345 348 354 359 5 13 17 17 14 11 328 355 352 9 77 184 179 176 174 177 179 187 188 188 183 183 175 173 183 188
279 290 312 317 315 316 323 331 331 333 335 337 343 352 350 351 356 1 5 15 20 27 30 30 49 50 21 26 82 105 156 145 157 173 184 187 188 189 187 173 172 171 177 182
305 323 319 310 311 321 327 332 332 334 339 340 342 353 354 351 357 359 8 11 20 28 37 43 52 48 57 54 81 107 121 142 171 181 180 188 189 189 188 180 171 174 178 173
308 321 316 316 313 324 328 332 334 338 341 341 343 354 359 352 356 1 3 12 19 27 38 41 50 56 51 71 92 122 137 161 174 173 182 191 191 189 185 181 174 183 180 177
310 315 310 312 316 327 332 335 336 339 344 344 347 354 357 359 355 1 359 8 17 23 37 42 43 52 63 49 74 99 140 163 166 173 186 194 193 191 184 193 186 187 184 181
309 308 307 307 317 326 332 333 337 340 343 347 349 352 355 2 357 359 360 4 12 19 31 38 32 45 38 31 35 95 134 148 160 183 188 195 198 191 181 170 187 178 181 190
309 306 304 302 314 321 327 332 336 340 343 345 349 351 353 357 5 356 1 4 7 12 16 32 51 82 78 72 121 151 148 157 174 182 181 165 165 168 176 178 177 189 190 193
303 300 298 296 307 317 322 328 332 338 344 346 347 351 353 355 3 5 357 1 358 8 14 10 31 57 66 128 160 162 144 158 156 168 172 172 170 173 175 173 163 163 170 177
295 295 291 291 306 312 317 324 332 341 344 346 347 350 354 357 356 6 358 352 1 355 7 9 5 40 50 68 87 105 151 187 109 120 154 153 150 157 163 165 173 177 178 168
285 284 283 290 301 304 313 321 330 339 345 347 346 348 350 354 354 355 7 356 356 355 352 356 357 6 51 60 65 102 118 155 152 151 142 147 160 178 170 165 167 170 176 178
279 278 271 281 292 299 308 318 330 339 346 346 345 346 348 349 352 351 355 6 353 353 335 340 348 350 6 77 90 90 86 116 156 158 163 170 164 174 180 185 177 182 194 206
264 260 260 277 283 292 305 320 331 340 345 344 344 344 346 347 347 349 347 354 0 343 345 324 340 342 334 333 66 123 124 137 176 169 181 178 165 192 192 193 194 201 195 197
253 245 259 270 274 286 305 321 332 340 342 343 343 343 343 343 341 348 349 351 355 356 337 341 330 330 329 305 285 207 169 172 163 177 184 179 191 191 194 189 187 195 188 187
237 241 254 259 267 286 308 322 332 339 340 340 343 343 341 345 342 342 349 349 351 353 341 335 334 325 316 306 272 261 244 218 196 200 184 183 191 199 196 200 203 206 197 188
231 242 250 253 264 285 306 322 332 336 341 342 345 343 341 344 347 343 342 350 351 350 347 335 338 334 326 314 294 266 253 235 229 214 215 208 196 192 196 216 210 211 208 203
231 242 241 246 262 286 308 326 333 339 342 345 346 343 343 344 348 351 349 347 351 353 352 346 340 340 334 326 303 279 266 252 229 224 218 208 205 206 204 210 212 212 212 216
235 234 232 238 258 287 315 330 335 340 343 348 347 347 349 352 350 352 351 352 352 351 351 349 345 341 338 330 323 292 269 260 245 225 222 219 213 228 227 221 217 220 215 213
232 229 227 235 256 291 319 332 336 342 347 351 352 351 352 357 358 359 354 352 352 351 349 349 348 344 338 333 329 311 282 264 254 238 226 213 206 207 210 216 219 220 210 204
226 223 226 237 262 291 317 331 337 346 349 354 356 356 0 6 4 360 355 352 350 351 350 348 348 348 342 337 333 328 306 283 256 241 230 220 215 207 209 206 207 207 213 214
228 222 223 229 252 285 315 331 341 347 353 358 356 2 7 7 4 357 353 352 350 351 351 350 350 350 347 341 336 335 326 312 279 237 222 212 209 207 206 202 202 201 206 206